User: anonymous   Login
Location: Unspecified
(0.0000°N, 0.0000°E)
Time: 06:53:17
(UTC+00:00)
Language:

STARLINK-35672 - Orbit

View from above orbital plane
View from above orbital plane
View from above satellite
View from above satellite

Ground track
Ground track

The orbit is defined by the following mean orbital elements,

1 66394U          26145.49144888 +.00000000 +00000-0 +28489-3 0 00009
2 66394  53.1586 219.4757 0001075  90.1668 269.9458 15.34399517    06
Epoch (UTC): 25 May 2026 11:47:41
Eccentricity: 0.0001075
inclination: 53.1586°
perigee height: 462 km
apogee height: 463 km
right ascension of ascending node: 219.4757°
argument of perigee: 90.1668°
revolutions per day: 15.34399517
mean anomaly at epoch: 269.9458°

The dashed part of the orbit path shows where the satellite is in the earth's shadow,  

DLR